Flag for US Virgin Islands Weather past 2 weeks in Charlotte Amalie, US Virgin Islands

Now
84 °F

Passing clouds.


Feels Like: 94 °F
Forecast: 81 / 88 °F
Wind: 10 mph from East

Location: Cyril E. King International Airport

Current Time: Sep 1, 2015 at 9:02:35 AM

Latest Report: Sep 1, 2015 at 7:53 AM


Visibility: 10 mi

Pressure: 30.02 "Hg

Humidity: 80%

Dew point: 77 °F

Location of Charlotte AmalieLocation

Historic Weather in Charlotte Amalie — Graph

°F

Charlotte Amalie temperature yesterday

Maximum temperature yesterday: 94 °F (at 2:53 PM)
Minimum temperature yesterday: 82 °F (at 3:53 AM)
Average temperature yesterday: 87 °F

Past Weeks' High & Low Weather Summary

 TemperatureHumidityPressure
High94 °F (Aug 31, 2:53 PM)94% (Sep 1, 5:53 AM)30.06 "Hg (Sep 1, 5:53 AM)
Low77 °F (Aug 17, 6:53 AM)49% (Aug 31, 2:53 PM)29.81 "Hg (Aug 27, 3:53 PM)
Average85 °F74%29.97 "Hg
* Reported Aug 17 6:53 AM — Sep 1 6:53 AM, Charlotte Amalie, Weather by CustomWeather, © 2015

Note: Actual official high and low records may vary slightly from our data, if they occured in-between our weather recording intervals... More about our weather records

Advertising

Charlotte Amalie weather history for previous 24 hours

 ConditionsComfort  
Time TempWeatherWind HumidityBarometerVisibility
6:53 AM
Tue, Sep 1
81 °FSunny.5 mph91%30.01 "Hg10 mi
5:53 AM80 °FClear.7 mph94%30.00 "Hg10 mi
4:53 AM81 °FClear.3 mph91%29.98 "Hg10 mi
3:53 AM82 °FPartly cloudy.3 mph91%29.99 "Hg10 mi
2:53 AM83 °FClear.7 mph82%29.99 "Hg10 mi
1:53 AM84 °FPassing clouds.6 mph80%30.01 "Hg10 mi
12:53 AM84 °FClear.9 mph80%30.02 "Hg10 mi
10:53 PM
Mon, Aug 31
84 °FClear.8 mph77%30.04 "Hg10 mi
9:53 PM84 °FClear.8 mph77%30.03 "Hg10 mi
8:53 PM84 °FPassing clouds.8 mph77%30.03 "Hg10 mi
7:53 PM85 °FClear.7 mph75%30.02 "Hg10 mi
6:53 PM86 °FClear.10 mph70%30.00 "Hg10 mi
5:53 PM87 °FSunny.14 mph65%30.00 "Hg10 mi
4:53 PM90 °FPassing clouds.13 mph59%29.99 "Hg10 mi
3:53 PM92 °FPassing clouds.13 mph56%29.99 "Hg10 mi
2:53 PM94 °FScattered clouds.16 mph49%30.00 "Hg10 mi
2:11 PM93 °FScattered clouds.13 mph52%30.01 "Hg10 mi
1:53 PM89 °FPassing clouds.15 mph68%30.01 "Hg10 mi
12:53 PM91 °FScattered clouds.12 mph64%30.03 "Hg10 mi
11:53 AM89 °FPartly sunny.14 mph68%30.05 "Hg10 mi
10:53 AM92 °FPartly sunny.13 mph56%30.05 "Hg10 mi
9:53 AM92 °FPassing clouds.15 mph56%30.04 "Hg10 mi
Weather by CustomWeather, © 2015

See weather overviewHow to use our weather pages